Time,TemperatureF,DewpointF,PressureIn,WindDirection,WindDirectionDegrees,WindSpeedMPH,WindSpeedGustMPH,Humidity,HourlyPrecipIn,Conditions,Clouds,dailyrainin,SolarRadiationWatts/m^2,SoftwareType,DateUTC
2013-06-01 00:00:00,75.3,68.7,29.97,West,270,0.0,0.0,80,0.00,,CLR,0.00,0.00,VWS V14.01,2013-06-01 04:00:00,
2013-06-01 00:01:00,74.6,67.3,29.97,WNW,298,0.0,0.0,78,0.00,,OVC070,0.00,0.00,VWS V14.01,2013-06-01 04:01:00,
2013-06-01 00:06:00,74.6,67.7,29.97,WNW,299,0.0,0.0,79,0.00,,OVC070,0.00,0.00,VWS V14.01,2013-06-01 04:06:00,
2013-06-01 00:11:00,74.4,67.5,29.97,WNW,296,0.0,0.0,79,0.00,,OVC070,0.00,0.00,VWS V14.01,2013-06-01 04:11:00,
2013-06-01 00:16:00,74.6,67.7,29.97,WNW,299,0.0,0.0,79,0.00,,OVC070,0.00,0.00,VWS V14.01,2013-06-01 04:16:00,
2013-06-01 00:21:00,74.6,68.0,29.97,SW,219,0.0,0.0,80,0.00,,OVC065,0.00,0.00,VWS V14.01,2013-06-01 04:21:00,
2013-06-01 00:26:00,74.6,68.4,29.97,SSW,209,0.0,0.0,81,0.00,,OVC065,0.00,0.00,VWS V14.01,2013-06-01 04:26:00,
2013-06-01 00:30:00,75.3,68.3,29.98,WNW,292,0.0,0.0,79,0.00,,CLR,0.00,0.00,VWS V14.01,2013-06-01 04:30:00,
2013-06-01 00:31:00,74.6,68.0,29.97,SSW,211,0.0,0.0,80,0.00,,OVC065,0.00,0.00,VWS V14.01,2013-06-01 04:31:00,
2013-06-01 00:36:00,74.4,68.6,29.97,SW,215,0.0,0.0,82,0.02,,OVC065,0.02,0.00,VWS V14.01,2013-06-01 04:36:00,
2013-06-01 00:41:00,73.9,68.8,29.97,SW,215,0.0,0.0,84,0.02,,OVC065,0.02,0.00,VWS V14.01,2013-06-01 04:41:00,
2013-06-01 00:46:00,73.3,68.5,29.98,SW,221,0.0,0.0,85,0.02,,OVC065,0.02,0.00,VWS V14.01,2013-06-01 04:46:00,
2013-06-01 00:51:00,73.0,68.2,29.98,SW,215,0.0,0.0,85,0.02,,OVC065,0.02,0.00,VWS V14.01,2013-06-01 04:51:00,
2013-06-01 00:56:00,72.7,67.9,29.98,SW,215,0.0,0.0,85,0.02,,OVC065,0.02,0.00,VWS V14.01,2013-06-01 04:56:00,
2013-06-01 01:00:00,74.6,67.3,29.97,WNW,300,0.0,0.0,78,0.00,,OVC065,0.00,0.00,VWS V14.01,2013-06-01 05:00:00,
2013-06-01 01:01:00,72.5,67.7,29.98,SW,215,0.0,0.0,85,0.06,,OVC065,0.06,0.00,VWS V14.01,2013-06-01 05:01:00,
2013-06-01 01:06:00,72.3,68.2,29.98,SW,215,0.0,0.0,87,0.07,,OVC090,0.07,0.00,VWS V14.01,2013-06-01 05:06:00,
2013-06-01 01:11:00,72.1,68.3,29.98,SW,215,0.0,0.0,88,0.07,,OVC090,0.07,0.00,VWS V14.01,2013-06-01 05:11:00,
2013-06-01 01:16:00,72.1,69.0,29.97,SW,216,0.0,0.0,90,0.07,,OVC090,0.07,0.00,VWS V14.01,2013-06-01 05:16:00,
2013-06-01 01:21:00,72.1,69.3,29.97,SW,225,0.0,0.0,91,0.07,,OVC090,0.07,0.00,VWS V14.01,2013-06-01 05:21:00,
2013-06-01 01:26:00,72.0,69.6,29.97,WSW,243,0.0,0.0,92,0.07,,OVC090,0.07,0.00,VWS V14.01,2013-06-01 05:26:00,
2013-06-01 01:30:00,74.6,68.0,29.97,SSW,211,0.0,0.0,80,0.00,,OVC065,0.00,0.00,VWS V14.01,2013-06-01 05:30:00,
2013-06-01 01:31:00,71.8,69.3,29.98,WSW,243,0.0,0.0,92,0.07,,OVC090,0.07,0.00,VWS V14.01,2013-06-01 05:31:00,
2013-06-01 01:36:00,71.6,69.5,29.98,WSW,243,0.0,0.0,93,0.07,,OVC090,0.07,0.00,VWS V14.01,2013-06-01 05:36:00,
2013-06-01 01:41:00,71.6,69.5,29.98,WSW,243,0.0,0.0,93,0.07,,OVC090,0.07,0.00,VWS V14.01,2013-06-01 05:41:00,
2013-06-01 01:46:00,71.6,69.5,29.98,WSW,243,0.0,0.0,93,0.07,,OVC090,0.07,0.00,VWS V14.01,2013-06-01 05:46:00,
2013-06-01 01:51:00,71.6,69.5,29.98,WSW,243,0.0,0.0,93,0.07,,OVC090,0.07,0.00,VWS V14.01,2013-06-01 05:51:00,
2013-06-01 01:56:00,71.5,69.7,29.98,WSW,243,0.0,0.0,94,0.07,,OVC090,0.07,0.00,VWS V14.01,2013-06-01 05:56:00,
2013-06-01 02:00:00,72.5,67.7,29.98,SW,215,0.0,0.0,85,0.06,,OVC065,0.06,0.00,VWS V14.01,2013-06-01 06:00:00,
2013-06-01 02:01:00,71.5,69.4,29.98,WSW,243,0.0,0.0,93,0.01,,OVC090,0.07,0.00,VWS V14.01,2013-06-01 06:01:00,
2013-06-01 02:06:00,71.5,69.7,29.98,WSW,245,0.0,0.0,94,0.01,,BKN100,0.07,0.00,VWS V14.01,2013-06-01 06:06:00,
2013-06-01 02:11:00,71.5,69.7,29.98,WSW,244,0.0,0.0,94,0.01,,BKN100,0.07,0.00,VWS V14.01,2013-06-01 06:11:00,
2013-06-01 02:16:00,71.5,69.1,29.98,WSW,246,0.0,0.0,92,0.01,,BKN100,0.07,0.00,VWS V14.01,2013-06-01 06:16:00,
2013-06-01 02:20:00,71.6,68.8,29.98,WSW,246,0.0,0.0,91,0.01,,BKN100,0.07,0.00,VWS V14.01,2013-06-01 06:20:00,
2013-06-01 02:25:00,71.8,69.3,29.98,WSW,246,0.0,0.0,92,0.01,,BKN100,0.07,0.00,VWS V14.01,2013-06-01 06:25:00,
2013-06-01 02:30:00,72.0,69.9,29.98,WSW,246,0.0,0.0,93,0.00,,BKN100,0.07,0.00,VWS V14.01,2013-06-01 06:30:00,
2013-06-01 02:35:00,72.0,69.6,29.98,WSW,246,0.0,0.0,92,0.00,,BKN100,0.07,0.00,VWS V14.01,2013-06-01 06:35:00,
2013-06-01 02:40:00,71.8,68.7,29.98,WSW,246,0.0,0.0,90,0.00,,BKN100,0.07,0.00,VWS V14.01,2013-06-01 06:40:00,
2013-06-01 02:45:00,71.8,68.7,29.98,WSW,246,0.0,0.0,90,0.01,,BKN100,0.08,0.00,VWS V14.01,2013-06-01 06:45:00,
2013-06-01 02:50:00,72.0,69.6,29.98,WSW,246,0.0,0.0,92,0.01,,BKN100,0.08,0.00,VWS V14.01,2013-06-01 06:50:00,
2013-06-01 02:55:00,72.0,69.6,29.98,WSW,246,0.0,0.0,92,0.01,,BKN100,0.08,0.00,VWS V14.01,2013-06-01 06:55:00,
2013-06-01 03:00:00,72.0,69.9,30.00,WSW,246,0.0,0.0,93,0.01,,BKN100,0.08,0.00,VWS V14.01,2013-06-01 07:00:00,
2013-06-01 03:05:00,71.8,69.0,30.00,WSW,246,0.0,0.0,91,0.01,,OVC060,0.08,0.00,VWS V14.01,2013-06-01 07:05:00,
2013-06-01 03:10:00,71.8,68.7,30.00,WSW,246,0.0,0.0,90,0.01,,OVC060,0.08,0.00,VWS V14.01,2013-06-01 07:10:00,
2013-06-01 03:15:00,71.8,68.4,29.99,WSW,246,0.0,0.0,89,0.01,,OVC060,0.08,0.00,VWS V14.01,2013-06-01 07:15:00,
2013-06-01 03:20:00,71.8,68.7,29.99,WSW,246,0.0,0.0,90,0.01,,OVC060,0.08,0.00,VWS V14.01,2013-06-01 07:20:00,
2013-06-01 03:25:00,71.8,69.3,29.99,WSW,246,0.0,0.0,92,0.01,,OVC060,0.08,0.00,VWS V14.01,2013-06-01 07:25:00,
2013-06-01 03:30:00,71.6,69.2,30.00,WSW,246,0.0,0.0,92,0.01,,OVC060,0.08,0.00,VWS V14.01,2013-06-01 07:30:00,
2013-06-01 03:35:00,71.6,69.5,30.00,WSW,246,0.0,0.0,93,0.01,,OVC060,0.08,0.00,VWS V14.01,2013-06-01 07:35:00,
2013-06-01 03:40:00,71.6,69.5,30.00,WSW,246,0.0,0.0,93,0.01,,OVC060,0.08,0.00,VWS V14.01,2013-06-01 07:40:00,
2013-06-01 03:45:00,71.3,69.2,29.99,WSW,246,0.0,0.0,93,0.01,,OVC060,0.08,0.00,VWS V14.01,2013-06-01 07:45:00,
2013-06-01 03:50:00,71.3,69.2,29.99,WSW,246,0.0,0.0,93,0.01,,OVC060,0.08,0.00,VWS V14.01,2013-06-01 07:50:00,
2013-06-01 03:55:00,71.3,69.2,29.99,WSW,246,0.0,0.0,93,0.01,,OVC060,0.08,0.00,VWS V14.01,2013-06-01 07:55:00,
2013-06-01 04:00:00,71.3,69.2,29.99,WSW,246,0.0,0.0,93,0.01,,OVC060,0.08,0.00,VWS V14.01,2013-06-01 08:00:00,
2013-06-01 04:05:00,71.3,68.9,29.99,WSW,246,0.0,0.0,92,0.00,,BKN060,0.08,0.00,VWS V14.01,2013-06-01 08:05:00,
2013-06-01 04:10:00,71.3,68.9,29.99,WSW,246,0.0,0.0,92,0.00,,BKN060,0.08,0.00,VWS V14.01,2013-06-01 08:10:00,
2013-06-01 04:15:00,71.1,67.7,30.00,WSW,246,0.0,0.0,89,0.00,,BKN060,0.08,0.00,VWS V14.01,2013-06-01 08:15:00,
2013-06-01 04:20:00,71.3,67.9,30.00,WSW,246,0.0,0.0,89,0.00,,BKN060,0.08,0.00,VWS V14.01,2013-06-01 08:20:00,
2013-06-01 04:25:00,71.3,68.2,30.00,WSW,246,0.0,0.0,90,0.00,,BKN060,0.08,0.00,VWS V14.01,2013-06-01 08:25:00,
2013-06-01 04:30:00,71.3,67.9,30.00,WSW,246,0.0,0.0,89,0.00,,BKN060,0.08,0.00,VWS V14.01,2013-06-01 08:30:00,
2013-06-01 04:35:00,71.1,66.4,30.00,WSW,246,0.0,0.0,85,0.00,,BKN060,0.08,0.00,VWS V14.01,2013-06-01 08:35:00,
2013-06-01 04:40:00,71.1,66.7,30.00,WSW,246,0.0,0.0,86,0.00,,BKN060,0.08,0.00,VWS V14.01,2013-06-01 08:40:00,
2013-06-01 04:45:00,71.1,66.4,29.99,WSW,246,0.0,0.0,85,0.00,,BKN060,0.08,0.00,VWS V14.01,2013-06-01 08:45:00,
2013-06-01 04:50:00,71.1,66.4,29.99,WSW,246,0.0,0.0,85,0.00,,BKN060,0.08,0.00,VWS V14.01,2013-06-01 08:50:00,
2013-06-01 04:55:00,71.1,67.7,29.99,WSW,253,0.0,0.0,89,0.00,,BKN060,0.08,0.00,VWS V14.01,2013-06-01 08:55:00,
2013-06-01 05:00:00,71.1,68.0,30.00,WSW,254,0.0,0.0,90,0.00,,BKN060,0.08,0.00,VWS V14.01,2013-06-01 09:00:00,
2013-06-01 05:05:00,70.9,68.2,30.00,WSW,254,0.0,0.0,91,0.00,,BKN060,0.08,0.00,VWS V14.01,2013-06-01 09:05:00,
2013-06-01 05:10:00,70.8,68.1,30.00,WSW,254,0.0,0.0,91,0.00,,BKN060,0.08,0.00,VWS V14.01,2013-06-01 09:10:00,
2013-06-01 05:15:00,70.6,67.5,29.99,WSW,254,0.0,0.0,90,0.00,,BKN060,0.08,0.00,VWS V14.01,2013-06-01 09:15:00,
2013-06-01 05:20:00,70.4,67.3,29.99,WSW,253,0.0,0.0,90,0.00,,SCT065,0.08,0.00,VWS V14.01,2013-06-01 09:20:00,
2013-06-01 05:25:00,70.4,66.7,29.99,WSW,253,0.0,0.0,88,0.00,,SCT065,0.08,0.00,VWS V14.01,2013-06-01 09:25:00,
2013-06-01 05:30:00,70.6,67.2,29.99,WSW,253,0.0,0.0,89,0.00,,SCT065,0.08,0.00,VWS V14.01,2013-06-01 09:30:00,
2013-06-01 05:35:00,70.6,67.2,29.99,WSW,253,0.0,0.0,89,0.00,,SCT065,0.08,0.00,VWS V14.01,2013-06-01 09:35:00,
2013-06-01 05:40:00,70.4,67.0,29.99,WSW,253,0.0,0.0,89,0.00,,SCT065,0.08,0.00,VWS V14.01,2013-06-01 09:40:00,
2013-06-01 05:45:00,70.4,67.0,29.99,WSW,253,0.0,0.0,89,0.00,,SCT065,0.08,0.00,VWS V14.01,2013-06-01 09:45:00,
2013-06-01 05:50:00,70.4,67.0,29.99,West,268,0.0,0.0,89,0.00,,SCT065,0.08,0.00,VWS V14.01,2013-06-01 09:50:00,
2013-06-01 05:55:00,70.3,66.9,29.99,West,274,0.0,0.0,89,0.00,,SCT065,0.08,0.00,VWS V14.01,2013-06-01 09:55:00,
2013-06-01 06:00:00,70.1,66.7,29.99,West,274,0.0,0.0,89,0.00,,SCT065,0.08,0.00,VWS V14.01,2013-06-01 10:00:00,
2013-06-01 06:05:00,70.1,66.7,29.99,West,274,0.0,0.0,89,0.00,,SCT065,0.08,0.00,VWS V14.01,2013-06-01 10:05:00,
2013-06-01 06:10:00,69.9,66.2,29.99,West,273,0.0,0.0,88,0.00,,SCT065,0.08,0.00,VWS V14.01,2013-06-01 10:10:00,
2013-06-01 06:15:00,69.8,66.1,30.00,WSW,251,0.0,0.0,88,0.00,,SCT065,0.08,0.00,VWS V14.01,2013-06-01 10:15:00,
2013-06-01 06:20:00,69.8,66.1,30.00,WSW,251,0.0,0.0,88,0.00,,SCT065,0.08,0.00,VWS V14.01,2013-06-01 10:20:00,
2013-06-01 06:25:00,69.9,66.5,30.00,WSW,251,0.0,0.0,89,0.00,,SCT065,0.08,7.00,VWS V14.01,2013-06-01 10:25:00,
2013-06-01 06:30:00,69.9,66.5,30.00,West,265,0.0,0.0,89,0.00,,SCT065,0.08,12.00,VWS V14.01,2013-06-01 10:30:00,
2013-06-01 06:35:00,69.9,66.2,30.00,West,267,0.0,0.0,88,0.00,,SCT065,0.08,14.00,VWS V14.01,2013-06-01 10:35:00,
2013-06-01 06:40:00,69.9,66.2,30.00,WNW,283,0.0,0.0,88,0.00,,SCT065,0.08,16.00,VWS V14.01,2013-06-01 10:40:00,
2013-06-01 06:45:00,69.9,65.9,30.00,WNW,284,0.0,0.0,87,0.00,,SCT065,0.08,23.00,VWS V14.01,2013-06-01 10:45:00,
2013-06-01 06:50:00,69.9,65.9,30.00,WNW,283,0.0,0.0,87,0.00,,SCT065,0.08,26.00,VWS V14.01,2013-06-01 10:50:00,
2013-06-01 06:55:00,69.9,65.9,30.00,WNW,290,0.0,0.0,87,0.00,,SCT065,0.08,35.00,VWS V14.01,2013-06-01 10:55:00,
2013-06-01 07:00:00,70.1,65.7,29.99,West,265,0.0,0.0,86,0.00,,SCT065,0.08,72.00,VWS V14.01,2013-06-01 11:00:00,
2013-06-01 07:05:00,70.6,66.6,29.99,West,267,0.0,0.0,87,0.00,,SCT018,0.08,69.00,VWS V14.01,2013-06-01 11:05:00,
2013-06-01 07:10:00,70.8,66.7,29.99,WNW,286,0.0,0.0,87,0.00,,SCT018,0.08,26.00,VWS V14.01,2013-06-01 11:10:00,
2013-06-01 07:15:00,70.8,66.7,30.00,WNW,283,0.0,0.0,87,0.00,,SCT018,0.08,51.00,VWS V14.01,2013-06-01 11:15:00,
2013-06-01 07:20:00,70.4,66.0,30.00,West,281,0.0,0.0,86,0.00,,SCT018,0.08,51.00,VWS V14.01,2013-06-01 11:20:00,
2013-06-01 07:25:00,70.4,66.0,30.00,West,271,0.0,0.0,86,0.00,,BKN018,0.08,56.00,VWS V14.01,2013-06-01 11:25:00,
2013-06-01 07:30:00,70.4,66.0,30.00,West,269,0.0,0.0,86,0.00,,BKN018,0.08,51.00,VWS V14.01,2013-06-01 11:30:00,
2013-06-01 07:35:00,70.6,65.9,30.00,West,273,0.0,0.0,85,0.00,,BKN018,0.08,62.00,VWS V14.01,2013-06-01 11:35:00,
2013-06-01 07:40:00,70.8,65.7,30.00,West,281,0.0,0.0,84,0.00,,BKN018,0.08,84.00,VWS V14.01,2013-06-01 11:40:00,
2013-06-01 07:45:00,70.9,66.2,30.00,WSW,242,0.0,0.0,85,0.00,,BKN018,0.08,81.00,VWS V14.01,2013-06-01 11:45:00,
2013-06-01 07:50:00,71.1,66.0,30.00,SW,222,0.0,0.0,84,0.00,,BKN018,0.08,74.00,VWS V14.01,2013-06-01 11:50:00,
2013-06-01 07:55:00,71.3,66.6,30.00,SW,224,0.0,0.0,85,0.00,,BKN018,0.08,84.00,VWS V14.01,2013-06-01 11:55:00,
2013-06-01 08:00:00,71.3,65.9,30.00,SW,214,0.0,0.0,83,0.00,,BKN018,0.08,121.00,VWS V14.01,2013-06-01 12:00:00,
2013-06-01 08:05:00,71.5,66.1,30.00,SSW,198,0.0,0.0,83,0.00,,BKN020,0.08,134.00,VWS V14.01,2013-06-01 12:05:00,
2013-06-01 08:10:00,71.8,66.0,30.00,SSW,198,0.0,0.0,82,0.00,,BKN020,0.08,183.00,VWS V14.01,2013-06-01 12:10:00,
2013-06-01 08:15:00,71.8,66.0,30.00,South,179,1.0,4.0,82,0.00,,BKN020,0.08,183.00,VWS V14.01,2013-06-01 12:15:00,
2013-06-01 08:20:00,72.0,66.2,30.00,South,184,0.0,4.0,82,0.00,,BKN020,0.08,190.00,VWS V14.01,2013-06-01 12:20:00,
2013-06-01 08:25:00,72.3,66.8,30.00,South,186,0.0,4.0,83,0.00,,BKN020,0.08,151.00,VWS V14.01,2013-06-01 12:25:00,
2013-06-01 08:30:00,72.8,66.6,30.00,South,186,0.0,4.0,81,0.00,,BKN020,0.08,352.00,VWS V14.01,2013-06-01 12:30:00,
2013-06-01 08:35:00,73.5,66.6,30.00,South,171,1.0,5.0,79,0.00,,BKN020,0.08,353.00,VWS V14.01,2013-06-01 12:35:00,
2013-06-01 08:40:00,73.9,65.9,30.00,West,277,0.0,5.0,76,0.00,,BKN020,0.08,367.00,VWS V14.01,2013-06-01 12:40:00,
2013-06-01 08:45:00,73.5,65.9,30.00,West,261,0.0,5.0,77,0.00,,SCT020,0.08,336.00,VWS V14.01,2013-06-01 12:45:00,
2013-06-01 08:50:00,73.3,66.0,30.00,NNW,331,0.0,5.0,78,0.00,,SCT020,0.08,134.00,VWS V14.01,2013-06-01 12:50:00,
2013-06-01 08:55:00,73.7,66.8,30.00,ENE,59,0.0,5.0,79,0.00,,SCT020,0.08,527.00,VWS V14.01,2013-06-01 12:55:00,
2013-06-01 09:00:00,74.4,66.3,30.00,SE,146,1.0,5.0,76,0.00,,SCT020,0.08,552.00,VWS V14.01,2013-06-01 13:00:00,
2013-06-01 09:05:00,74.9,66.4,30.00,SE,142,3.0,7.0,75,0.00,,BKN018,0.08,420.00,VWS V14.01,2013-06-01 13:05:00,
2013-06-01 09:10:00,75.1,66.6,30.00,SSE,155,0.0,7.0,75,0.00,,BKN018,0.08,434.00,VWS V14.01,2013-06-01 13:10:00,
2013-06-01 09:15:00,75.1,66.2,30.00,SW,231,0.0,7.0,74,0.00,,BKN018,0.08,332.00,VWS V14.01,2013-06-01 13:15:00,
2013-06-01 09:20:00,74.9,66.1,30.00,SSE,161,3.0,7.0,74,0.00,,BKN018,0.08,274.00,VWS V14.01,2013-06-01 13:20:00,
2013-06-01 09:25:00,74.7,66.3,30.00,SSE,157,0.0,7.0,75,0.00,,OVC015,0.08,206.00,VWS V14.01,2013-06-01 13:25:00,
2013-06-01 09:30:00,74.4,66.3,30.00,South,178,0.0,7.0,76,0.00,,OVC015,0.08,227.00,VWS V14.01,2013-06-01 13:30:00,
2013-06-01 09:35:00,74.2,66.2,30.00,South,174,0.0,3.0,76,0.00,,OVC015,0.08,204.00,VWS V14.01,2013-06-01 13:35:00,
2013-06-01 09:40:00,74.2,66.2,30.00,SW,225,0.0,5.0,76,0.00,,OVC015,0.08,278.00,VWS V14.01,2013-06-01 13:40:00,
2013-06-01 09:45:00,74.4,66.3,30.00,SSE,166,0.0,5.0,76,0.00,,OVC015,0.08,264.00,VWS V14.01,2013-06-01 13:45:00,
2013-06-01 09:50:00,74.9,66.1,30.00,SSE,159,0.0,5.0,74,0.00,,OVC015,0.08,786.00,VWS V14.01,2013-06-01 13:50:00,
2013-06-01 09:55:00,75.1,65.9,30.00,WNW,287,1.0,5.0,73,0.00,,OVC015,0.08,214.00,VWS V14.01,2013-06-01 13:55:00,
2013-06-01 10:00:00,74.9,66.4,30.00,WSW,257,0.0,5.0,75,0.00,,OVC015,0.08,313.00,VWS V14.01,2013-06-01 14:00:00,
2013-06-01 10:05:00,74.7,65.5,30.00,SSW,211,0.0,1.0,73,0.00,,OVC025,0.08,204.00,VWS V14.01,2013-06-01 14:05:00,
2013-06-01 10:10:00,74.7,65.5,30.00,SE,135,0.0,3.0,73,0.00,,OVC025,0.08,812.00,VWS V14.01,2013-06-01 14:10:00,
2013-06-01 10:15:00,74.7,65.9,29.99,SW,235,0.0,3.0,74,0.00,,OVC025,0.08,853.00,VWS V14.01,2013-06-01 14:15:00,
2013-06-01 10:20:00,75.4,65.8,29.99,South,171,3.0,3.0,72,0.00,,OVC025,0.08,327.00,VWS V14.01,2013-06-01 14:20:00,
2013-06-01 10:25:00,75.8,65.3,29.99,SE,138,4.0,7.0,70,0.00,,OVC025,0.08,877.00,VWS V14.01,2013-06-01 14:25:00,
2013-06-01 10:30:00,75.6,65.1,30.00,SSE,147,0.0,7.0,70,0.00,,OVC025,0.08,250.00,VWS V14.01,2013-06-01 14:30:00,
2013-06-01 10:35:00,76.0,66.3,30.00,SE,134,2.0,2.0,72,0.00,,OVC025,0.08,889.00,VWS V14.01,2013-06-01 14:35:00,
2013-06-01 10:40:00,76.5,65.6,30.00,SE,141,0.0,4.0,69,0.00,,OVC025,0.08,949.00,VWS V14.01,2013-06-01 14:40:00,
2013-06-01 10:45:00,76.5,64.7,29.99,WNW,291,3.0,5.0,67,0.00,,OVC025,0.08,320.00,VWS V14.01,2013-06-01 14:45:00,
2013-06-01 10:50:00,76.1,65.2,29.99,WSW,258,7.0,7.0,69,0.00,,OVC025,0.08,700.00,VWS V14.01,2013-06-01 14:50:00,
2013-06-01 10:55:00,75.3,65.7,29.99,WSW,257,2.0,7.0,72,0.00,,OVC025,0.08,278.00,VWS V14.01,2013-06-01 14:55:00,
2013-06-01 11:00:00,74.6,64.6,29.99,WSW,257,3.0,7.0,71,0.00,,OVC025,0.08,373.00,VWS V14.01,2013-06-01 15:00:00,
2013-06-01 11:05:00,74.2,64.6,29.99,West,281,0.0,7.0,72,0.00,,BKN029,0.08,360.00,VWS V14.01,2013-06-01 15:05:00,
2013-06-01 11:10:00,74.0,65.6,29.99,WNW,301,0.0,8.0,75,0.00,,BKN029,0.08,1083.00,VWS V14.01,2013-06-01 15:10:00,
2013-06-01 11:15:00,74.2,65.0,29.99,West,279,4.0,8.0,73,0.00,,BKN029,0.08,969.00,VWS V14.01,2013-06-01 15:15:00,
2013-06-01 11:20:00,74.6,65.0,29.99,West,263,5.0,8.0,72,0.00,,BKN029,0.08,990.00,VWS V14.01,2013-06-01 15:20:00,
2013-06-01 11:25:00,74.7,65.5,29.99,WNW,288,9.0,9.0,73,0.00,,BKN029,0.08,390.00,VWS V14.01,2013-06-01 15:25:00,
2013-06-01 11:30:00,75.1,64.7,29.98,West,266,0.0,11.0,70,0.00,,BKN029,0.08,408.00,VWS V14.01,2013-06-01 15:30:00,
2013-06-01 11:35:00,75.3,64.4,29.98,SW,234,1.0,7.0,69,0.00,,BKN029,0.08,984.00,VWS V14.01,2013-06-01 15:35:00,
2013-06-01 11:40:00,75.4,64.5,29.98,NNW,331,0.0,9.0,69,0.00,,BKN029,0.08,962.00,VWS V14.01,2013-06-01 15:40:00,
2013-06-01 11:45:00,75.6,64.3,29.99,WNW,287,0.0,9.0,68,0.00,,BKN029,0.08,990.00,VWS V14.01,2013-06-01 15:45:00,
2013-06-01 11:50:00,75.6,64.7,29.99,West,277,0.0,9.0,69,0.00,,BKN029,0.08,977.00,VWS V14.01,2013-06-01 15:50:00,
2013-06-01 11:55:00,75.8,64.9,29.99,East,82,0.0,9.0,69,0.00,,BKN029,0.08,969.00,VWS V14.01,2013-06-01 15:55:00,
2013-06-01 12:00:00,76.3,65.0,29.98,SE,128,0.0,9.0,68,0.00,,BKN029,0.08,930.00,VWS V14.01,2013-06-01 16:00:00,
2013-06-01 12:05:00,76.8,65.4,29.98,South,190,5.0,5.0,68,0.00,,SCT035,0.08,960.00,VWS V14.01,2013-06-01 16:05:00,
2013-06-01 12:10:00,77.2,64.1,29.98,NW,320,1.0,9.0,64,0.00,,SCT035,0.08,970.00,VWS V14.01,2013-06-01 16:10:00,
2013-06-01 12:15:00,77.7,64.6,29.98,SE,141,3.0,9.0,64,0.00,,SCT035,0.08,958.00,VWS V14.01,2013-06-01 16:15:00,
2013-06-01 12:20:00,78.1,65.4,29.98,SE,134,0.0,9.0,65,0.00,,SCT035,0.08,1028.00,VWS V14.01,2013-06-01 16:20:00,
2013-06-01 12:25:00,77.9,65.2,29.98,WSW,242,0.0,9.0,65,0.00,,BKN033,0.08,271.00,VWS V14.01,2013-06-01 16:25:00,
2013-06-01 12:30:00,77.9,64.8,29.99,ENE,57,2.0,9.0,64,0.00,,BKN033,0.08,1085.00,VWS V14.01,2013-06-01 16:30:00,
2013-06-01 12:35:00,78.1,64.9,29.99,WNW,284,1.0,3.0,64,0.00,,BKN033,0.08,1083.00,VWS V14.01,2013-06-01 16:35:00,
2013-06-01 12:40:00,78.5,64.4,29.99,SE,144,3.0,7.0,62,0.00,,BKN033,0.08,1088.00,VWS V14.01,2013-06-01 16:40:00,
2013-06-01 12:45:00,78.8,64.2,29.98,SE,135,3.0,7.0,61,0.00,,BKN033,0.08,1037.00,VWS V14.01,2013-06-01 16:45:00,
2013-06-01 12:50:00,79.2,64.6,29.98,SSE,149,1.0,7.0,61,0.00,,BKN033,0.08,1000.00,VWS V14.01,2013-06-01 16:50:00,
2013-06-01 12:55:00,79.4,64.8,29.98,SE,131,0.0,7.0,61,0.00,,BKN033,0.08,1005.00,VWS V14.01,2013-06-01 16:55:00,
2013-06-01 13:00:00,79.8,65.2,29.98,WNW,282,10.0,14.0,61,0.00,,BKN033,0.08,1005.00,VWS V14.01,2013-06-01 17:00:00,
2013-06-01 13:05:00,79.0,65.3,29.98,NW,318,3.0,7.0,63,0.00,,BKN049,0.08,998.00,VWS V14.01,2013-06-01 17:05:00,
2013-06-01 13:10:00,78.6,65.9,29.98,SW,217,0.0,7.0,65,0.00,,BKN049,0.08,990.00,VWS V14.01,2013-06-01 17:10:00,
2013-06-01 13:15:00,78.8,64.2,29.98,SE,138,4.0,7.0,61,0.00,,BKN049,0.08,1013.00,VWS V14.01,2013-06-01 17:15:00,
2013-06-01 13:20:00,79.6,64.5,29.98,ESE,107,1.0,7.0,60,0.00,,BKN049,0.08,1034.00,VWS V14.01,2013-06-01 17:20:00,
2013-06-01 13:25:00,79.6,64.0,29.98,West,281,0.0,7.0,59,0.00,,BKN049,0.08,1041.00,VWS V14.01,2013-06-01 17:25:00,
2013-06-01 13:30:00,78.8,64.2,29.98,West,262,0.0,9.0,61,0.00,,BKN049,0.08,1074.00,VWS V14.01,2013-06-01 17:30:00,
2013-06-01 13:35:00,78.6,64.0,29.98,NW,324,0.0,9.0,61,0.00,,BKN049,0.08,1062.00,VWS V14.01,2013-06-01 17:35:00,
2013-06-01 13:40:00,78.8,65.2,29.98,NW,319,0.0,9.0,63,0.00,,BKN049,0.08,1005.00,VWS V14.01,2013-06-01 17:40:00,
2013-06-01 13:45:00,79.6,64.0,29.97,NNW,333,4.0,9.0,59,0.00,,BKN049,0.08,997.00,VWS V14.01,2013-06-01 17:45:00,
2013-06-01 13:50:00,80.1,64.5,29.97,SE,139,0.0,9.0,59,0.00,,BKN049,0.08,979.00,VWS V14.01,2013-06-01 17:50:00,
2013-06-01 13:55:00,80.3,65.2,29.97,SE,127,3.0,9.0,60,0.00,,BKN049,0.08,997.00,VWS V14.01,2013-06-01 17:55:00,
2013-06-01 14:00:00,80.5,64.4,29.97,SE,128,2.0,9.0,58,0.00,,BKN049,0.08,1025.00,VWS V14.01,2013-06-01 18:00:00,
2013-06-01 14:05:00,79.9,65.3,29.97,ESE,105,4.0,7.0,61,0.00,,SCT050,0.08,1034.00,VWS V14.01,2013-06-01 18:05:00,
2013-06-01 14:10:00,79.2,66.0,29.97,ESE,107,3.0,7.0,64,0.00,,SCT050,0.08,387.00,VWS V14.01,2013-06-01 18:10:00,
2013-06-01 14:15:00,78.8,64.2,29.96,East,96,0.0,7.0,61,0.00,,SCT050,0.08,1013.00,VWS V14.01,2013-06-01 18:15:00,
2013-06-01 14:20:00,79.2,64.6,29.96,East,93,0.0,7.0,61,0.00,,SCT050,0.08,1044.00,VWS V14.01,2013-06-01 18:20:00,
2013-06-01 14:25:00,79.2,66.0,29.96,ESE,118,3.0,7.0,64,0.00,,SCT050,0.08,1086.00,VWS V14.01,2013-06-01 18:25:00,
2013-06-01 14:29:00,79.6,65.0,29.96,SE,136,5.0,7.0,61,0.00,,SCT050,0.08,253.00,VWS V14.01,2013-06-01 18:29:00,
2013-06-01 14:30:00,78.8,63.8,29.98,WSW,257,5.0,9.0,60,0.00,,OVC065,0.08,1062.00,VWS V14.01,2013-06-01 18:30:00,
2013-06-01 14:34:00,80.3,65.2,29.95,SE,129,4.0,5.0,60,0.00,,SCT050,0.08,962.00,VWS V14.01,2013-06-01 18:34:00,
2013-06-01 14:39:00,80.7,64.6,29.95,ESE,109,1.0,5.0,58,0.00,,SCT050,0.08,991.00,VWS V14.01,2013-06-01 18:39:00,
2013-06-01 14:44:00,80.3,64.7,29.95,ESE,105,1.0,5.0,59,0.00,,SCT050,0.08,979.00,VWS V14.01,2013-06-01 18:44:00,
2013-06-01 14:49:00,80.5,64.4,29.95,ENE,75,0.0,5.0,58,0.00,,SCT050,0.08,1044.00,VWS V14.01,2013-06-01 18:49:00,
2013-06-01 14:54:00,80.9,65.7,29.95,SSW,200,0.0,10.0,60,0.00,,SCT050,0.08,1106.00,VWS V14.01,2013-06-01 18:54:00,
2013-06-01 14:59:00,80.7,65.1,29.95,West,280,3.0,10.0,59,0.00,,SCT050,0.08,450.00,VWS V14.01,2013-06-01 18:59:00,
2013-06-01 15:00:00,80.5,64.4,29.97,SE,131,1.0,9.0,58,0.00,,OVC065,0.08,1023.00,VWS V14.01,2013-06-01 19:00:00,
2013-06-01 15:04:00,79.9,64.8,29.95,South,173,0.0,4.0,60,0.00,,CLR,0.08,262.00,VWS V14.01,2013-06-01 19:04:00,
2013-06-01 15:09:00,80.1,65.4,29.95,ESE,107,0.0,4.0,61,0.00,,CLR,0.08,237.00,VWS V14.01,2013-06-01 19:09:00,
2013-06-01 15:14:00,80.3,64.2,29.95,ENE,78,0.0,4.0,58,0.00,,CLR,0.08,956.00,VWS V14.01,2013-06-01 19:14:00,
2013-06-01 15:19:00,80.7,64.6,29.95,North,360,0.0,7.0,58,0.00,,CLR,0.08,947.00,VWS V14.01,2013-06-01 19:19:00,
2013-06-01 15:24:00,81.1,65.9,29.95,West,263,0.0,7.0,60,0.00,,CLR,0.08,930.00,VWS V14.01,2013-06-01 19:24:00,
2013-06-01 15:29:00,81.4,66.2,29.95,West,265,0.0,7.0,60,0.00,,CLR,0.08,621.00,VWS V14.01,2013-06-01 19:29:00,
2013-06-01 15:30:00,79.8,65.2,29.95,SE,132,4.0,7.0,61,0.00,,OVC065,0.08,1011.00,VWS V14.01,2013-06-01 19:30:00,
2013-06-01 15:34:00,81.6,64.9,29.94,NW,319,0.0,4.0,57,0.00,,CLR,0.08,937.00,VWS V14.01,2013-06-01 19:34:00,
2013-06-01 15:39:00,81.8,65.6,29.94,ESE,121,1.0,6.0,58,0.00,,CLR,0.08,842.00,VWS V14.01,2013-06-01 19:39:00,
2013-06-01 15:44:00,82.0,65.3,29.94,East,97,0.0,6.0,57,0.00,,CLR,0.08,274.00,VWS V14.01,2013-06-01 19:44:00,
2013-06-01 15:49:00,82.0,65.8,29.94,East,98,0.0,6.0,58,0.00,,CLR,0.08,225.00,VWS V14.01,2013-06-01 19:49:00,
2013-06-01 15:54:00,82.0,66.8,29.94,ESE,114,0.0,6.0,60,0.00,,CLR,0.08,315.00,VWS V14.01,2013-06-01 19:54:00,
2013-06-01 15:59:00,82.2,65.5,29.94,SE,127,0.0,6.0,57,0.00,,CLR,0.08,844.00,VWS V14.01,2013-06-01 19:59:00,
2013-06-01 16:00:00,80.5,65.3,29.95,West,274,0.0,10.0,60,0.00,,OVC065,0.08,448.00,VWS V14.01,2013-06-01 20:00:00,
2013-06-01 16:04:00,82.4,64.6,29.93,SE,126,0.0,1.0,55,0.00,,SCT075,0.08,826.00,VWS V14.01,2013-06-01 20:04:00,
2013-06-01 16:09:00,82.6,64.8,29.93,SSW,207,0.0,3.0,55,0.00,,SCT075,0.08,830.00,VWS V14.01,2013-06-01 20:09:00,
2013-06-01 16:14:00,83.0,65.2,29.93,SSE,151,0.0,3.0,55,0.00,,SCT075,0.08,315.00,VWS V14.01,2013-06-01 20:14:00,
2013-06-01 16:19:00,83.2,65.4,29.92,SE,134,0.0,3.0,55,0.00,,SCT075,0.08,863.00,VWS V14.01,2013-06-01 20:19:00,
2013-06-01 16:24:00,83.4,64.5,29.92,SW,217,4.0,5.0,53,0.00,,SCT075,0.08,779.00,VWS V14.01,2013-06-01 20:24:00,
2013-06-01 16:29:00,83.6,64.7,29.92,SE,145,0.0,5.0,53,0.00,,SCT075,0.08,765.00,VWS V14.01,2013-06-01 20:29:00,
2013-06-01 16:30:00,81.4,65.2,29.94,West,281,0.0,7.0,58,0.00,,OVC065,0.08,930.00,VWS V14.01,2013-06-01 20:30:00,
2013-06-01 16:34:00,83.8,67.0,29.92,West,279,0.0,5.0,57,0.00,,SCT075,0.08,747.00,VWS V14.01,2013-06-01 20:34:00,
2013-06-01 16:39:00,83.8,65.9,29.92,WNW,286,1.0,5.0,55,0.00,,SCT075,0.08,717.00,VWS V14.01,2013-06-01 20:39:00,
2013-06-01 16:44:00,83.4,65.0,29.92,ESE,121,5.0,6.0,54,0.00,,SCT075,0.08,703.00,VWS V14.01,2013-06-01 20:44:00,
2013-06-01 16:49:00,83.2,65.4,29.92,ESE,111,0.0,6.0,55,0.00,,SCT075,0.08,703.00,VWS V14.01,2013-06-01 20:49:00,
2013-06-01 16:54:00,83.6,65.2,29.92,ESE,113,0.0,6.0,54,0.00,,SCT075,0.08,698.00,VWS V14.01,2013-06-01 20:54:00,
2013-06-01 16:59:00,84.0,65.6,29.92,West,277,0.0,6.0,54,0.00,,SCT075,0.08,666.00,VWS V14.01,2013-06-01 20:59:00,
2013-06-01 17:00:00,82.4,66.2,29.93,SE,135,0.0,6.0,58,0.00,,OVC065,0.08,837.00,VWS V14.01,2013-06-01 21:00:00,
2013-06-01 17:04:00,84.0,66.1,29.91,SSW,211,1.0,2.0,55,0.00,,CLR,0.08,649.00,VWS V14.01,2013-06-01 21:04:00,
2013-06-01 17:09:00,84.0,65.6,29.91,ESE,111,0.0,2.0,54,0.00,,CLR,0.08,629.00,VWS V14.01,2013-06-01 21:09:00,
2013-06-01 17:14:00,84.0,66.6,29.91,ESE,117,2.0,4.0,56,0.00,,CLR,0.08,615.00,VWS V14.01,2013-06-01 21:14:00,
2013-06-01 17:19:00,83.6,66.3,29.90,SE,126,3.0,4.0,56,0.00,,CLR,0.08,605.00,VWS V14.01,2013-06-01 21:19:00,
2013-06-01 17:24:00,83.8,66.4,29.90,ESE,114,0.0,4.0,56,0.00,,CLR,0.08,594.00,VWS V14.01,2013-06-01 21:24:00,
2013-06-01 17:29:00,84.0,65.6,29.90,SE,134,2.0,5.0,54,0.00,,CLR,0.08,563.00,VWS V14.01,2013-06-01 21:29:00,
2013-06-01 17:30:00,83.8,65.4,29.92,ESE,119,0.0,5.0,54,0.00,,OVC065,0.08,765.00,VWS V14.01,2013-06-01 21:30:00,
2013-06-01 17:34:00,84.3,64.8,29.90,East,98,1.0,1.0,52,0.00,,CLR,0.08,547.00,VWS V14.01,2013-06-01 21:34:00,
2013-06-01 17:39:00,84.5,64.4,29.90,SE,125,1.0,4.0,51,0.00,,CLR,0.08,538.00,VWS V14.01,2013-06-01 21:39:00,
2013-06-01 17:44:00,84.5,65.0,29.90,SE,146,3.0,5.0,52,0.00,,CLR,0.08,531.00,VWS V14.01,2013-06-01 21:44:00,
2013-06-01 17:49:00,84.3,64.8,29.89,SE,127,3.0,5.0,52,0.00,,CLR,0.08,494.00,VWS V14.01,2013-06-01 21:49:00,
2013-06-01 17:54:00,84.5,66.1,29.89,SE,128,0.0,5.0,54,0.00,,CLR,0.08,478.00,VWS V14.01,2013-06-01 21:54:00,
2013-06-01 17:59:00,84.7,65.7,29.89,SE,125,1.0,5.0,53,0.00,,CLR,0.08,464.00,VWS V14.01,2013-06-01 21:59:00,
2013-06-01 18:00:00,84.0,65.1,29.91,West,272,1.0,6.0,53,0.00,,OVC065,0.08,663.00,VWS V14.01,2013-06-01 22:00:00,
2013-06-01 18:04:00,84.7,64.0,29.89,SE,144,1.0,5.0,50,0.00,,CLR,0.08,445.00,VWS V14.01,2013-06-01 22:04:00,
2013-06-01 18:09:00,84.7,64.6,29.89,SE,126,3.0,5.0,51,0.00,,CLR,0.08,431.00,VWS V14.01,2013-06-01 22:09:00,
2013-06-01 18:14:00,84.5,64.4,29.89,SE,136,0.0,5.0,51,0.00,,CLR,0.08,418.00,VWS V14.01,2013-06-01 22:14:00,
2013-06-01 18:19:00,84.3,64.2,29.89,SE,128,2.0,5.0,51,0.00,,CLR,0.08,396.00,VWS V14.01,2013-06-01 22:19:00,
2013-06-01 18:24:00,84.5,64.4,29.89,ESE,107,0.0,5.0,51,0.00,,CLR,0.08,381.00,VWS V14.01,2013-06-01 22:24:00,
2013-06-01 18:29:00,84.5,65.0,29.89,East,94,0.0,5.0,52,0.00,,CLR,0.08,83.00,VWS V14.01,2013-06-01 22:29:00,
2013-06-01 18:30:00,84.1,65.1,29.90,ESE,121,1.0,5.0,53,0.00,,OVC065,0.08,561.00,VWS V14.01,2013-06-01 22:30:00,
2013-06-01 18:34:00,84.1,66.2,29.89,ESE,110,1.0,2.0,55,0.00,,CLR,0.08,70.00,VWS V14.01,2013-06-01 22:34:00,
2013-06-01 18:39:00,83.6,65.2,29.89,South,184,0.0,4.0,54,0.00,,CLR,0.08,156.00,VWS V14.01,2013-06-01 22:39:00,
2013-06-01 18:44:00,83.2,66.4,29.89,ESE,121,0.0,4.0,57,0.00,,CLR,0.08,137.00,VWS V14.01,2013-06-01 22:44:00,
2013-06-01 18:49:00,82.8,65.5,29.89,ESE,103,0.0,4.0,56,0.00,,CLR,0.08,67.00,VWS V14.01,2013-06-01 22:49:00,
2013-06-01 18:54:00,82.4,65.1,29.89,ESE,111,0.0,4.0,56,0.00,,CLR,0.08,58.00,VWS V14.01,2013-06-01 22:54:00,
2013-06-01 18:59:00,82.2,66.0,29.89,East,86,0.0,4.0,58,0.00,,CLR,0.08,81.00,VWS V14.01,2013-06-01 22:59:00,
2013-06-01 19:00:00,84.7,65.1,29.89,SE,124,1.0,5.0,52,0.00,,OVC065,0.08,457.00,VWS V14.01,2013-06-01 23:00:00,
2013-06-01 19:04:00,82.0,66.3,29.88,ENE,65,0.0,0.0,59,0.00,,CLR,0.08,70.00,VWS V14.01,2013-06-01 23:04:00,
2013-06-01 19:09:00,81.8,66.1,29.88,ENE,63,0.0,0.0,59,0.00,,CLR,0.08,74.00,VWS V14.01,2013-06-01 23:09:00,
2013-06-01 19:14:00,81.6,66.4,29.88,NE,42,0.0,1.0,60,0.00,,CLR,0.08,109.00,VWS V14.01,2013-06-01 23:14:00,
2013-06-01 19:19:00,81.6,66.9,29.88,NE,55,0.0,1.0,61,0.00,,CLR,0.08,225.00,VWS V14.01,2013-06-01 23:19:00,
2013-06-01 19:24:00,81.8,67.1,29.88,NE,53,0.0,1.0,61,0.00,,CLR,0.08,195.00,VWS V14.01,2013-06-01 23:24:00,
2013-06-01 19:29:00,82.4,68.1,29.88,ENE,73,0.0,2.0,62,0.00,,CLR,0.08,172.00,VWS V14.01,2013-06-01 23:29:00,
2013-06-01 19:30:00,84.5,65.0,29.89,East,99,1.0,5.0,52,0.00,,OVC065,0.08,79.00,VWS V14.01,2013-06-01 23:30:00,
2013-06-01 19:34:00,82.6,67.3,29.87,NE,44,0.0,0.0,60,0.00,,CLR,0.08,149.00,VWS V14.01,2013-06-01 23:34:00,
2013-06-01 19:39:00,83.0,68.7,29.87,West,271,0.0,1.0,62,0.00,,CLR,0.08,123.00,VWS V14.01,2013-06-01 23:39:00,
2013-06-01 19:44:00,82.6,70.1,29.87,West,266,0.0,1.0,66,0.00,,CLR,0.08,77.00,VWS V14.01,2013-06-01 23:44:00,
2013-06-01 19:49:00,81.2,69.2,29.88,West,277,0.0,4.0,67,0.00,,CLR,0.08,90.00,VWS V14.01,2013-06-01 23:49:00,
2013-06-01 19:54:00,80.1,69.4,29.88,WNW,283,0.0,4.0,70,0.00,,CLR,0.08,79.00,VWS V14.01,2013-06-01 23:54:00,
2013-06-01 19:59:00,79.6,69.4,29.88,West,279,2.0,4.0,71,0.00,,CLR,0.08,67.00,VWS V14.01,2013-06-01 23:59:00,
2013-06-01 20:00:00,82.2,65.5,29.88,East,93,0.0,4.0,57,0.00,,OVC065,0.08,81.00,VWS V14.01,2013-06-02 00:00:00,
2013-06-01 20:04:00,78.8,68.6,29.88,West,277,2.0,4.0,71,0.00,,CLR,0.08,26.00,VWS V14.01,2013-06-02 00:04:00,
2013-06-01 20:09:00,78.1,68.8,29.88,West,277,0.0,4.0,73,0.00,,CLR,0.08,19.00,VWS V14.01,2013-06-02 00:09:00,
2013-06-01 20:14:00,77.7,69.2,29.88,West,269,0.0,4.0,75,0.00,,CLR,0.08,11.00,VWS V14.01,2013-06-02 00:14:00,
2013-06-01 20:19:00,77.6,69.1,29.87,West,265,0.0,4.0,75,0.00,,CLR,0.08,9.00,VWS V14.01,2013-06-02 00:19:00,
2013-06-01 20:24:00,77.2,68.3,29.87,West,270,0.0,4.0,74,0.00,,CLR,0.08,7.00,VWS V14.01,2013-06-02 00:24:00,
2013-06-01 20:29:00,77.0,68.1,29.87,West,262,0.0,4.0,74,0.00,,CLR,0.08,5.00,VWS V14.01,2013-06-02 00:29:00,
2013-06-01 20:30:00,82.4,67.6,29.87,ENE,63,0.0,2.0,61,0.00,,OVC065,0.08,165.00,VWS V14.01,2013-06-02 00:30:00,
2013-06-01 20:34:00,76.8,68.7,29.88,WSW,253,0.0,0.0,76,0.00,,CLR,0.08,0.00,VWS V14.01,2013-06-02 00:34:00,
2013-06-01 20:39:00,76.7,68.2,29.88,WSW,253,0.0,0.0,75,0.00,,CLR,0.08,0.00,VWS V14.01,2013-06-02 00:39:00,
2013-06-01 20:44:00,76.5,68.4,29.88,West,259,0.0,1.0,76,0.00,,CLR,0.08,0.00,VWS V14.01,2013-06-02 00:44:00,
2013-06-01 20:49:00,76.3,68.6,29.88,West,273,1.0,1.0,77,0.00,,CLR,0.08,0.00,VWS V14.01,2013-06-02 00:49:00,
2013-06-01 20:54:00,76.1,68.8,29.88,West,272,0.0,1.0,78,0.00,,CLR,0.08,0.00,VWS V14.01,2013-06-02 00:54:00,
2013-06-01 20:59:00,76.0,68.7,29.88,West,275,0.0,1.0,78,0.00,,CLR,0.08,0.00,VWS V14.01,2013-06-02 00:59:00,
2013-06-01 21:00:00,79.4,69.2,29.88,West,275,1.0,4.0,71,0.00,,OVC065,0.08,30.00,VWS V14.01,2013-06-02 01:00:00,
2013-06-01 21:04:00,76.0,69.4,29.87,West,264,0.0,0.0,80,0.00,,CLR,0.08,0.00,VWS V14.01,2013-06-02 01:04:00,
2013-06-01 21:09:00,75.6,68.6,29.87,West,261,0.0,0.0,79,0.00,,CLR,0.08,0.00,VWS V14.01,2013-06-02 01:09:00,
2013-06-01 21:14:00,75.4,68.1,29.87,WSW,258,0.0,0.0,78,0.00,,CLR,0.08,0.00,VWS V14.01,2013-06-02 01:14:00,
2013-06-01 21:19:00,75.4,68.4,29.89,WSW,253,0.0,0.0,79,0.00,,CLR,0.08,0.00,VWS V14.01,2013-06-02 01:19:00,
2013-06-01 21:24:00,75.4,68.8,29.89,WSW,245,0.0,0.0,80,0.00,,CLR,0.08,0.00,VWS V14.01,2013-06-02 01:24:00,
2013-06-01 21:29:00,75.4,69.2,29.89,WSW,250,0.0,0.0,81,0.00,,CLR,0.08,0.00,VWS V14.01,2013-06-02 01:29:00,
2013-06-01 21:30:00,77.0,68.1,29.88,WSW,252,0.0,4.0,74,0.00,,OVC065,0.08,0.00,VWS V14.01,2013-06-02 01:30:00,
2013-06-01 21:34:00,75.6,69.4,29.90,West,268,0.0,0.0,81,0.00,,CLR,0.08,0.00,VWS V14.01,2013-06-02 01:34:00,
2013-06-01 21:39:00,75.6,69.4,29.90,West,277,0.0,0.0,81,0.00,,CLR,0.08,0.00,VWS V14.01,2013-06-02 01:39:00,
2013-06-01 21:44:00,75.6,69.4,29.90,West,260,0.0,0.0,81,0.00,,CLR,0.08,0.00,VWS V14.01,2013-06-02 01:44:00,
2013-06-01 21:49:00,75.6,69.4,29.91,WSW,254,0.0,0.0,81,0.00,,CLR,0.08,0.00,VWS V14.01,2013-06-02 01:49:00,
2013-06-01 21:54:00,75.6,69.4,29.91,West,275,0.0,0.0,81,0.00,,CLR,0.08,0.00,VWS V14.01,2013-06-02 01:54:00,
2013-06-01 21:59:00,75.4,69.2,29.91,WSW,249,0.0,0.0,81,0.00,,CLR,0.08,0.00,VWS V14.01,2013-06-02 01:59:00,
2013-06-01 22:00:00,76.0,68.7,29.87,West,279,0.0,1.0,78,0.00,,OVC065,0.08,0.00,VWS V14.01,2013-06-02 02:00:00,
2013-06-01 22:04:00,75.4,69.2,29.90,SSW,209,0.0,0.0,81,0.00,,OVC095,0.08,0.00,VWS V14.01,2013-06-02 02:04:00,
2013-06-01 22:09:00,75.4,69.5,29.90,West,263,0.0,0.0,82,0.00,,OVC095,0.08,0.00,VWS V14.01,2013-06-02 02:09:00,
2013-06-01 22:14:00,74.9,69.4,29.90,West,269,0.0,0.0,83,0.00,,OVC095,0.08,0.00,VWS V14.01,2013-06-02 02:14:00,
2013-06-01 22:19:00,74.7,69.6,29.91,West,267,0.0,0.0,84,0.00,,OVC095,0.08,0.00,VWS V14.01,2013-06-02 02:19:00,
2013-06-01 22:24:00,74.6,69.4,29.91,West,278,0.0,0.0,84,0.00,,OVC095,0.08,0.00,VWS V14.01,2013-06-02 02:24:00,
2013-06-01 22:29:00,74.4,69.6,29.91,West,279,0.0,0.0,85,0.00,,OVC095,0.08,0.00,VWS V14.01,2013-06-02 02:29:00,
2013-06-01 22:30:00,75.4,69.2,29.90,WSW,257,0.0,0.0,81,0.00,,OVC065,0.08,0.00,VWS V14.01,2013-06-02 02:30:00,
2013-06-01 22:34:00,74.4,69.6,29.92,WNW,284,0.0,0.0,85,0.00,,OVC095,0.08,0.00,VWS V14.01,2013-06-02 02:34:00,
2013-06-01 22:39:00,74.6,70.1,29.92,WNW,284,0.0,0.0,86,0.00,,OVC095,0.08,0.00,VWS V14.01,2013-06-02 02:39:00,
2013-06-01 22:44:00,74.6,69.8,29.92,WNW,284,0.0,0.0,85,0.00,,OVC095,0.08,0.00,VWS V14.01,2013-06-02 02:44:00,
2013-06-01 22:49:00,74.6,69.8,29.92,West,280,0.0,0.0,85,0.00,,OVC095,0.08,0.00,VWS V14.01,2013-06-02 02:49:00,
2013-06-01 22:54:00,74.6,69.8,29.92,West,269,0.0,0.0,85,0.00,,OVC095,0.08,0.00,VWS V14.01,2013-06-02 02:54:00,
2013-06-01 22:59:00,74.6,69.8,29.92,West,270,0.0,0.0,85,0.00,,OVC095,0.08,0.00,VWS V14.01,2013-06-02 02:59:00,
2013-06-01 23:00:00,75.4,69.2,29.90,SW,227,0.0,0.0,81,0.00,,OVC065,0.08,0.00,VWS V14.01,2013-06-02 03:00:00,
2013-06-01 23:04:00,74.6,69.8,29.92,West,273,0.0,0.0,85,0.00,,SCT080,0.00,0.00,VWS V14.01,2013-06-02 03:04:00,
2013-06-01 23:09:00,74.6,69.8,29.92,West,279,0.0,0.0,85,0.00,,SCT080,0.00,0.00,VWS V14.01,2013-06-02 03:09:00,
2013-06-01 23:14:00,74.4,69.6,29.92,West,277,0.0,0.0,85,0.00,,SCT080,0.00,0.00,VWS V14.01,2013-06-02 03:14:00,
2013-06-01 23:19:00,74.6,69.8,29.92,NW,321,0.0,0.0,85,0.00,,SCT080,0.00,0.00,VWS V14.01,2013-06-02 03:19:00,
2013-06-01 23:24:00,74.6,69.4,29.92,NNW,333,0.0,0.0,84,0.00,,SCT080,0.00,0.00,VWS V14.01,2013-06-02 03:24:00,
2013-06-01 23:29:00,74.7,69.6,29.92,NW,324,0.0,0.0,84,0.00,,SCT080,0.00,0.00,VWS V14.01,2013-06-02 03:29:00,
2013-06-01 23:30:00,74.4,69.6,29.92,West,279,0.0,0.0,85,0.00,,OVC065,0.08,0.00,VWS V14.01,2013-06-02 03:30:00,
2013-06-01 23:34:00,74.7,69.6,29.92,NW,321,0.0,0.0,84,0.00,,SCT080,0.00,0.00,VWS V14.01,2013-06-02 03:34:00,
2013-06-01 23:39:00,74.7,69.9,29.92,NW,318,0.0,0.0,85,0.00,,SCT080,0.00,0.00,VWS V14.01,2013-06-02 03:39:00,
2013-06-01 23:44:00,74.7,69.9,29.92,NW,317,0.0,0.0,85,0.00,,SCT080,0.00,0.00,VWS V14.01,2013-06-02 03:44:00,
2013-06-01 23:49:00,74.6,69.4,29.92,NW,312,0.0,0.0,84,0.00,,SCT080,0.00,0.00,VWS V14.01,2013-06-02 03:49:00,
2013-06-01 23:54:00,74.4,69.3,29.92,NW,311,0.0,0.0,84,0.00,,SCT080,0.00,0.00,VWS V14.01,2013-06-02 03:54:00,
2013-06-01 23:59:00,74.4,69.6,29.92,NW,312,0.0,0.0,85,0.00,,SCT080,0.00,0.00,VWS V14.01,2013-06-02 03:59:00,